,,,PA_Meas_PMT16A,,PR_Meas_QMR101_102,,RH_Meas_QMH101,,SR_Meas_QMS101,,TA_Meas_QMH101,,GenWind,,GenWind,
date,time,status,PA,status,PR,status,RH,status,SR,status,TA,status,DirAvg,status,SpdAvg,
2014-12-01, 00:00:05,VALID,1009.11,VALID,0,INVALID,131.62,VALID,0,VALID,23.4992,VALID,38,VALID,0,
2014-12-01, 00:01:05,VALID,1009.15,VALID,0,INVALID,131.735,VALID,0,VALID,23.4992,VALID,38,VALID,0,
2014-12-01, 00:02:05,VALID,1009.15,VALID,0,INVALID,131.765,VALID,0,VALID,23.4797,VALID,38,VALID,0,
2014-12-01, 00:03:05,VALID,1009.17,VALID,0,INVALID,131.765,VALID,0,VALID,23.4992,VALID,38,VALID,0,
2014-12-01, 00:04:05,VALID,1009.14,VALID,0,INVALID,131.682,VALID,0,VALID,23.4992,VALID,38,VALID,0,
2014-12-01, 00:05:05,VALID,1009.14,VALID,0,INVALID,131.727,VALID,0,VALID,23.4992,VALID,38,VALID,0,
2014-12-01, 00:06:05,VALID,1009.14,VALID,0,INVALID,131.712,VALID,0,VALID,23.5186,VALID,38,VALID,0,
2014-12-01, 00:07:05,VALID,1009.13,VALID,0,INVALID,131.666,VALID,0,VALID,23.5186,VALID,38,VALID,0,
2014-12-01, 00:08:05,VALID,1009.09,VALID,0,INVALID,131.811,VALID,0,VALID,23.4992,VALID,38,VALID,0,
2014-12-01, 00:09:05,VALID,1009.1,VALID,0,INVALID,131.88,VALID,0,VALID,23.5186,VALID,38,VALID,0,
2014-12-01, 00:10:05,VALID,1009.14,VALID,0,INVALID,131.826,VALID,0,VALID,23.4992,VALID,38,VALID,0,
2014-12-01, 00:11:05,VALID,1009.18,VALID,0,INVALID,131.933,VALID,0,VALID,23.4992,VALID,38,VALID,0,
2014-12-01, 00:12:05,VALID,1009.18,VALID,0,INVALID,131.964,VALID,0,VALID,23.5204,VALID,38,VALID,0,
2014-12-01, 00:13:05,VALID,1009.23,VALID,0,INVALID,131.994,VALID,0,VALID,23.4992,VALID,38,VALID,0,
2014-12-01, 00:14:05,VALID,1009.3,VALID,0,INVALID,131.979,VALID,0,VALID,23.5204,VALID,38,VALID,0,
2014-12-01, 00:15:05,VALID,1009.35,VALID,0,INVALID,131.895,VALID,0,VALID,23.5381,VALID,38,VALID,0,
2014-12-01, 00:16:05,VALID,1009.37,VALID,0,INVALID,131.933,VALID,0,VALID,23.5186,VALID,38,VALID,0,
2014-12-01, 00:17:05,VALID,1009.38,VALID,0,INVALID,131.948,VALID,0,VALID,23.5381,VALID,38,VALID,0,
2014-12-01, 00:18:05,VALID,1009.31,VALID,0,INVALID,132.04,VALID,0,VALID,23.5399,VALID,38,VALID,0,
2014-12-01, 00:19:05,VALID,1009.29,VALID,0,INVALID,132.101,VALID,0,VALID,23.5381,VALID,38,VALID,0,
2014-12-01, 00:20:05,VALID,1009.28,VALID,0,INVALID,132.048,VALID,0,VALID,23.5594,VALID,38,VALID,0,
2014-12-01, 00:21:05,VALID,1009.27,VALID,0,INVALID,132.223,VALID,0,VALID,23.5186,VALID,38,VALID,0,
2014-12-01, 00:22:05,VALID,1009.2,VALID,0,INVALID,132.307,VALID,0,VALID,23.5186,VALID,38,VALID,0,
2014-12-01, 00:23:05,VALID,1009.2,VALID,0,INVALID,132.375,VALID,0,VALID,23.5399,VALID,38,VALID,0,
2014-12-01, 00:24:05,VALID,1009.29,VALID,0,INVALID,132.368,VALID,0,VALID,23.5381,VALID,59,VALID,0,
2014-12-01, 00:25:05,VALID,1009.35,VALID,0,INVALID,132.414,VALID,0,VALID,23.5381,VALID,81,VALID,0,
2014-12-01, 00:26:05,VALID,1009.34,VALID,0,INVALID,132.33,VALID,0,VALID,23.5576,VALID,81,VALID,0,
2014-12-01, 00:27:04,VALID,1009.35,VALID,0,INVALID,132.497,VALID,0,VALID,23.5576,VALID,81,VALID,0,
2014-12-01, 00:28:04,VALID,1009.38,VALID,0,INVALID,132.52,VALID,0,VALID,23.5576,VALID,81,VALID,0,
2014-12-01, 00:29:04,VALID,1009.37,VALID,0,INVALID,132.635,VALID,0,VALID,23.5381,VALID,81,VALID,0,
2014-12-01, 00:30:04,VALID,1009.35,VALID,0,INVALID,132.68,VALID,0,VALID,23.5771,VALID,81,VALID,0,
2014-12-01, 00:31:04,VALID,1009.31,VALID,0.5,INVALID,132.642,VALID,0,VALID,23.5771,VALID,81,VALID,0,
2014-12-01, 00:32:04,VALID,1009.31,VALID,0,INVALID,132.757,VALID,0,VALID,23.5771,VALID,81,VALID,0,
2014-12-01, 00:33:04,VALID,1009.3,VALID,0,INVALID,132.909,VALID,0,VALID,23.5381,VALID,81,VALID,0,
2014-12-01, 00:34:04,VALID,1009.29,VALID,0,INVALID,132.902,VALID,0,VALID,23.5576,VALID,81,VALID,0,
2014-12-01, 00:35:04,VALID,1009.24,VALID,0.5,INVALID,133.1,VALID,0,VALID,23.5381,VALID,81,VALID,0,
2014-12-01, 00:36:04,VALID,1009.25,VALID,0.5,INVALID,133.062,VALID,0,VALID,23.5381,VALID,81,VALID,0,
2014-12-01, 00:37:04,VALID,1009.23,VALID,0,INVALID,133.069,VALID,0,VALID,23.5381,VALID,81,VALID,0,
2014-12-01, 00:38:04,VALID,1009.21,VALID,0,INVALID,133.016,VALID,0,VALID,23.5381,VALID,81,VALID,0,
2014-12-01, 00:39:04,VALID,1009.23,VALID,0,INVALID,132.993,VALID,0,VALID,23.5169,VALID,81,VALID,0,
2014-12-01, 00:40:04,VALID,1009.2,VALID,0.5,INVALID,133.016,VALID,0.112112,VALID,23.5381,VALID,81,VALID,0,
2014-12-01, 00:41:04,VALID,1009.11,VALID,0,INVALID,133.024,VALID,0,VALID,23.5381,VALID,81,VALID,0,
2014-12-01, 00:42:04,VALID,1009.09,VALID,0,INVALID,133.024,VALID,0,VALID,23.5186,VALID,81,VALID,0,
2014-12-01, 00:43:04,VALID,1009.03,VALID,0,INVALID,133.13,VALID,0,VALID,23.4992,VALID,81,VALID,0,
2014-12-01, 00:44:04,VALID,1009.01,VALID,0,INVALID,133.039,VALID,0,VALID,23.4992,VALID,80,VALID,0,
2014-12-01, 00:45:04,VALID,1008.96,VALID,0,INVALID,133.153,VALID,0,VALID,23.4815,VALID,67,VALID,0,
2014-12-01, 00:46:04,VALID,1008.94,VALID,0,INVALID,133.1,VALID,0,VALID,23.4602,VALID,67,VALID,0,
2014-12-01, 00:47:04,VALID,1008.91,VALID,0.5,INVALID,133.184,VALID,0,VALID,23.4815,VALID,67,VALID,0,
2014-12-01, 00:48:04,VALID,1008.87,VALID,0,INVALID,133.062,VALID,0,VALID,23.4797,VALID,67,VALID,0,
2014-12-01, 00:49:04,VALID,1008.81,VALID,0,INVALID,133.1,VALID,0,VALID,23.4797,VALID,67,VALID,0,
2014-12-01, 00:50:04,VALID,1008.83,VALID,0,INVALID,133.085,VALID,0,VALID,23.4797,VALID,67,VALID,0,
2014-12-01, 00:51:04,VALID,1008.87,VALID,0,INVALID,133.115,VALID,0,VALID,23.5009,VALID,110,VALID,0,
2014-12-01, 00:52:04,VALID,1008.86,VALID,0,INVALID,133.085,VALID,0,VALID,23.4779,VALID,119,VALID,0,
2014-12-01, 00:53:04,VALID,1008.86,VALID,0,INVALID,133.13,VALID,0,VALID,23.4797,VALID,150,VALID,0,
2014-12-01, 00:54:04,VALID,1008.85,VALID,0,INVALID,133.199,VALID,0,VALID,23.4797,VALID,150,VALID,0,
2014-12-01, 00:55:04,VALID,1008.78,VALID,0,INVALID,133.13,VALID,0,VALID,23.4602,VALID,150,VALID,0,
2014-12-01, 00:56:04,VALID,1008.74,VALID,0,INVALID,133.191,VALID,0,VALID,23.4797,VALID,150,VALID,0,
2014-12-01, 00:57:04,VALID,1008.69,VALID,0,INVALID,133.176,VALID,0,VALID,23.5009,VALID,150,VALID,0,
2014-12-01, 00:58:04,VALID,1008.69,VALID,0,INVALID,133.108,VALID,0,VALID,23.4797,VALID,96,VALID,0,
2014-12-01, 00:59:04,VALID,1008.69,VALID,0,INVALID,133.23,VALID,0,VALID,23.4602,VALID,47,VALID,0,
2014-12-01, 01:00:04,VALID,1008.69,VALID,0,INVALID,133.352,VALID,0,VALID,23.4797,VALID,48,VALID,0,
2014-12-01, 01:01:04,VALID,1008.68,VALID,0,INVALID,133.382,VALID,0,VALID,23.4815,VALID,48,VALID,0,
2014-12-01, 01:02:04,VALID,1008.66,VALID,0,INVALID,133.519,VALID,0,VALID,23.4602,VALID,48,VALID,0,
2014-12-01, 01:03:04,VALID,1008.65,VALID,0,INVALID,133.649,VALID,0,VALID,23.4407,VALID,47,VALID,0,
2014-12-01, 01:04:04,VALID,1008.59,VALID,0,INVALID,133.664,VALID,0,VALID,23.4602,VALID,48,VALID,0,
2014-12-01, 01:05:04,VALID,1008.55,VALID,0,INVALID,133.748,VALID,0,VALID,23.4602,VALID,47,VALID,0,
2014-12-01, 01:06:04,VALID,1008.54,VALID,0.5,INVALID,133.801,VALID,0,VALID,23.4797,VALID,48,VALID,0,
2014-12-01, 01:07:04,VALID,1008.51,VALID,0,INVALID,133.84,VALID,0,VALID,23.4602,VALID,47,VALID,0,
2014-12-01, 01:08:04,VALID,1008.48,VALID,0,INVALID,133.969,VALID,0,VALID,23.4797,VALID,47,VALID,0,
2014-12-01, 01:09:04,VALID,1008.49,VALID,0,INVALID,133.954,VALID,0,VALID,23.4992,VALID,48,VALID,0,
2014-12-01, 01:10:04,VALID,1008.46,VALID,0,INVALID,133.992,VALID,0.112112,VALID,23.4797,VALID,47,VALID,0,
2014-12-01, 01:11:04,VALID,1008.45,VALID,0,INVALID,134.03,VALID,0,VALID,23.4992,VALID,47,VALID,0,
2014-12-01, 01:12:04,VALID,1008.44,VALID,0,INVALID,134,VALID,0,VALID,23.4992,VALID,47,VALID,0,
2014-12-01, 01:13:04,VALID,1008.43,VALID,0,INVALID,134.053,VALID,0.112112,VALID,23.4992,VALID,47,VALID,0,
2014-12-01, 01:14:04,VALID,1008.42,VALID,0,INVALID,134.091,VALID,0,VALID,23.4797,VALID,48,VALID,0,
2014-12-01, 01:15:04,VALID,1008.42,VALID,0,INVALID,134.198,VALID,0,VALID,23.4797,VALID,47,VALID,0,
2014-12-01, 01:16:04,VALID,1008.41,VALID,0,INVALID,134.32,VALID,0,VALID,23.4815,VALID,47,VALID,0,
2014-12-01, 01:17:04,VALID,1008.41,VALID,0,INVALID,134.366,VALID,0,VALID,23.4797,VALID,47,VALID,0,
2014-12-01, 01:18:04,VALID,1008.4,VALID,0,INVALID,134.404,VALID,0,VALID,23.4815,VALID,47,VALID,0,
2014-12-01, 01:19:04,VALID,1008.38,VALID,0,INVALID,134.442,VALID,0,VALID,23.4602,VALID,47,VALID,0,
2014-12-01, 01:20:04,VALID,1008.39,VALID,0,INVALID,134.465,VALID,0,VALID,23.4797,VALID,47,VALID,0,
2014-12-01, 01:21:04,VALID,1008.4,VALID,0,INVALID,134.511,VALID,0,VALID,23.4797,VALID,47,VALID,0,
2014-12-01, 01:22:04,VALID,1008.34,VALID,0,INVALID,134.572,VALID,0,VALID,23.4797,VALID,47,VALID,0,
2014-12-01, 01:23:04,VALID,1008.37,VALID,0,INVALID,134.617,VALID,0,VALID,23.4602,VALID,47,VALID,0,
2014-12-01, 01:24:04,VALID,1008.33,VALID,0,INVALID,134.656,VALID,0,VALID,23.4602,VALID,47,VALID,0,
2014-12-01, 01:25:04,VALID,1008.33,VALID,0,INVALID,134.739,VALID,0,VALID,23.4602,VALID,48,VALID,0,
2014-12-01, 01:26:04,VALID,1008.33,VALID,0,INVALID,134.732,VALID,0,VALID,23.4407,VALID,47,VALID,0,
2014-12-01, 01:27:04,VALID,1008.36,VALID,0,INVALID,134.762,VALID,0,VALID,23.4407,VALID,47,VALID,0,
2014-12-01, 01:28:04,VALID,1008.32,VALID,0,INVALID,134.8,VALID,0,VALID,23.462,VALID,48,VALID,0,
2014-12-01, 01:29:04,VALID,1008.32,VALID,0,INVALID,134.755,VALID,0,VALID,23.4425,VALID,47,VALID,0,
2014-12-01, 01:30:04,VALID,1008.29,VALID,0,INVALID,134.709,VALID,0,VALID,23.4425,VALID,47,VALID,0,
2014-12-01, 01:31:04,VALID,1008.3,VALID,0,INVALID,134.762,VALID,0,VALID,23.4212,VALID,47,VALID,0,
2014-12-01, 01:32:04,VALID,1008.3,VALID,0,INVALID,134.793,VALID,0,VALID,23.4017,VALID,47,VALID,0,
2014-12-01, 01:33:04,VALID,1008.3,VALID,0,INVALID,134.839,VALID,0,VALID,23.4017,VALID,47,VALID,0,
2014-12-01, 01:34:04,VALID,1008.32,VALID,0,INVALID,134.816,VALID,0,VALID,23.423,VALID,47,VALID,0,
2014-12-01, 01:35:04,VALID,1008.3,VALID,0,INVALID,134.793,VALID,0,VALID,23.4017,VALID,47,VALID,0,
2014-12-01, 01:36:04,VALID,1008.28,VALID,0,INVALID,134.762,VALID,0,VALID,23.4017,VALID,47,VALID,0,
2014-12-01, 01:37:04,VALID,1008.27,VALID,0,INVALID,134.747,VALID,0,VALID,23.3823,VALID,47,VALID,0,
2014-12-01, 01:38:04,VALID,1008.29,VALID,0,INVALID,134.663,VALID,0,VALID,23.4017,VALID,47,VALID,0,
2014-12-01, 01:39:04,VALID,1008.28,VALID,0,INVALID,134.648,VALID,0,VALID,23.4035,VALID,47,VALID,0,
2014-12-01, 01:40:04,VALID,1008.27,VALID,0,INVALID,134.633,VALID,0,VALID,23.3823,VALID,47,VALID,0,
2014-12-01, 01:41:04,VALID,1008.28,VALID,0,INVALID,134.64,VALID,0,VALID,23.3823,VALID,47,VALID,0,
2014-12-01, 01:42:04,VALID,1008.31,VALID,0,INVALID,134.678,VALID,0,VALID,23.3823,VALID,47,VALID,0,
2014-12-01, 01:43:04,VALID,1008.27,VALID,0,INVALID,134.64,VALID,0,VALID,23.3823,VALID,47,VALID,0,
2014-12-01, 01:44:04,VALID,1008.27,VALID,0,INVALID,134.633,VALID,0,VALID,23.3628,VALID,47,VALID,0,
2014-12-01, 01:45:04,VALID,1008.3,VALID,0,INVALID,134.61,VALID,0.112112,VALID,23.361,VALID,47,VALID,0,
2014-12-01, 01:46:04,VALID,1008.27,VALID,0,INVALID,134.625,VALID,0.112112,VALID,23.3628,VALID,47,VALID,0,
2014-12-01, 01:47:04,VALID,1008.26,VALID,0,INVALID,134.625,VALID,0.112112,VALID,23.3823,VALID,47,VALID,0,
2014-12-01, 01:48:04,VALID,1008.25,VALID,0,INVALID,134.595,VALID,0.112112,VALID,23.361,VALID,47,VALID,0,
2014-12-01, 01:49:04,VALID,1008.23,VALID,0,INVALID,134.602,VALID,0.112112,VALID,23.3415,VALID,47,VALID,0,
2014-12-01, 01:50:04,VALID,1008.18,VALID,0,INVALID,134.564,VALID,0.112112,VALID,23.322,VALID,47,VALID,0,
2014-12-01, 01:51:04,VALID,1008.14,VALID,0,INVALID,134.564,VALID,0.112112,VALID,23.3415,VALID,47,VALID,0,
2014-12-01, 01:52:04,VALID,1008.11,VALID,0,INVALID,134.564,VALID,0.112112,VALID,23.3628,VALID,47,VALID,0,
2014-12-01, 01:53:04,VALID,1008.13,VALID,0,INVALID,134.678,VALID,0.112112,VALID,23.322,VALID,47,VALID,0,
2014-12-01, 01:54:04,VALID,1008.11,VALID,0,INVALID,134.686,VALID,0.112112,VALID,23.322,VALID,47,VALID,0,
2014-12-01, 01:55:04,VALID,1008.1,VALID,0,INVALID,134.709,VALID,0.112112,VALID,23.3026,VALID,47,VALID,0,
2014-12-01, 01:56:04,VALID,1008.08,VALID,0,INVALID,134.732,VALID,0.112112,VALID,23.3026,VALID,47,VALID,0,
2014-12-01, 01:57:04,VALID,1008.09,VALID,0,INVALID,134.755,VALID,0.112112,VALID,23.3043,VALID,47,VALID,0,
2014-12-01, 01:58:04,VALID,1008.07,VALID,0,INVALID,134.831,VALID,0,VALID,23.2848,VALID,47,VALID,0,
2014-12-01, 01:59:04,VALID,1008.05,VALID,0,INVALID,134.846,VALID,0.112112,VALID,23.2636,VALID,47,VALID,0,
2014-12-01, 02:00:04,VALID,1008.03,VALID,0,INVALID,134.831,VALID,0,VALID,23.2654,VALID,47,VALID,0,
2014-12-01, 02:01:04,VALID,1008.03,VALID,0,INVALID,134.831,VALID,0,VALID,23.2654,VALID,47,VALID,0,
2014-12-01, 02:02:04,VALID,1008.02,VALID,0,INVALID,134.854,VALID,0,VALID,23.2866,VALID,47,VALID,0,
2014-12-01, 02:03:04,VALID,1008.03,VALID,0,INVALID,134.861,VALID,0,VALID,23.2654,VALID,47,VALID,0,
2014-12-01, 02:04:04,VALID,1008.01,VALID,0,INVALID,134.884,VALID,0,VALID,23.2866,VALID,47,VALID,0,
2014-12-01, 02:05:04,VALID,1008,VALID,0,INVALID,134.907,VALID,0,VALID,23.2459,VALID,47,VALID,0,
2014-12-01, 02:06:04,VALID,1008.01,VALID,0,INVALID,134.93,VALID,0,VALID,23.2671,VALID,47,VALID,0,
2014-12-01, 02:07:04,VALID,1008.03,VALID,0,INVALID,134.999,VALID,0,VALID,23.2476,VALID,47,VALID,0,
2014-12-01, 02:08:04,VALID,1008.02,VALID,0,INVALID,135.006,VALID,0,VALID,23.2476,VALID,48,VALID,0,
2014-12-01, 02:09:04,VALID,1008.02,VALID,0,INVALID,135.067,VALID,0,VALID,23.2476,VALID,48,VALID,0,
2014-12-01, 02:10:04,VALID,1008.03,VALID,0,INVALID,135.09,VALID,0,VALID,23.2264,VALID,48,VALID,0,
2014-12-01, 02:11:04,VALID,1008.02,VALID,0,INVALID,135.098,VALID,0,VALID,23.2476,VALID,48,VALID,0,
2014-12-01, 02:12:04,VALID,1008.06,VALID,0,INVALID,135.022,VALID,0,VALID,23.2459,VALID,48,VALID,0,
2014-12-01, 02:13:04,VALID,1008.08,VALID,0,INVALID,135.014,VALID,0,VALID,23.2671,VALID,48,VALID,0,
2014-12-01, 02:14:04,VALID,1008.05,VALID,0,INVALID,135.06,VALID,0,VALID,23.2671,VALID,48,VALID,0,
2014-12-01, 02:15:04,VALID,1008.04,VALID,0,INVALID,135.128,VALID,0,VALID,23.2476,VALID,48,VALID,0,
2014-12-01, 02:16:04,VALID,1008.03,VALID,0,INVALID,135.128,VALID,0,VALID,23.2671,VALID,48,VALID,0,
2014-12-01, 02:17:04,VALID,1007.99,VALID,0,INVALID,135.205,VALID,0,VALID,23.2459,VALID,48,VALID,0,
2014-12-01, 02:18:04,VALID,1008,VALID,0,INVALID,135.281,VALID,0,VALID,23.2264,VALID,48,VALID,0,
2014-12-01, 02:19:04,VALID,1007.98,VALID,0,INVALID,135.281,VALID,0,VALID,23.2264,VALID,48,VALID,0,
2014-12-01, 02:20:04,VALID,1007.95,VALID,0,INVALID,135.342,VALID,0,VALID,23.2264,VALID,48,VALID,0,
2014-12-01, 02:21:04,VALID,1007.94,VALID,0,INVALID,135.357,VALID,0,VALID,23.2264,VALID,48,VALID,0,
2014-12-01, 02:22:04,VALID,1007.91,VALID,0.5,INVALID,135.395,VALID,0,VALID,23.2069,VALID,47,VALID,0,
2014-12-01, 02:23:04,VALID,1007.93,VALID,0,INVALID,135.464,VALID,0,VALID,23.2282,VALID,47,VALID,0,
2014-12-01, 02:24:04,VALID,1007.89,VALID,0,INVALID,135.487,VALID,0,VALID,23.2282,VALID,47,VALID,0,
2014-12-01, 02:25:04,VALID,1007.88,VALID,0,INVALID,135.479,VALID,0,VALID,23.1874,VALID,47,VALID,0,
2014-12-01, 02:26:04,VALID,1007.86,VALID,0,INVALID,135.533,VALID,0,VALID,23.1874,VALID,47,VALID,0,
2014-12-01, 02:27:04,VALID,1007.86,VALID,0,INVALID,135.54,VALID,0,VALID,23.2087,VALID,47,VALID,0,
2014-12-01, 02:28:04,VALID,1007.83,VALID,0,INVALID,135.548,VALID,0,VALID,23.2282,VALID,47,VALID,0,
2014-12-01, 02:29:04,VALID,1007.83,VALID,0,INVALID,135.517,VALID,0,VALID,23.2282,VALID,47,VALID,0,
2014-12-01, 02:30:04,VALID,1007.82,VALID,0,INVALID,135.51,VALID,0,VALID,23.2282,VALID,47,VALID,0,
2014-12-01, 02:31:04,VALID,1007.76,VALID,0,INVALID,135.51,VALID,0,VALID,23.2282,VALID,47,VALID,0,
2014-12-01, 02:32:04,VALID,1007.76,VALID,0,INVALID,135.555,VALID,0,VALID,23.1857,VALID,47,VALID,0,
2014-12-01, 02:33:04,VALID,1007.76,VALID,0,INVALID,135.54,VALID,0,VALID,23.2069,VALID,47,VALID,0,
2014-12-01, 02:34:04,VALID,1007.74,VALID,0,INVALID,135.555,VALID,0,VALID,23.1874,VALID,47,VALID,0,
2014-12-01, 02:35:04,VALID,1007.75,VALID,0,INVALID,135.548,VALID,0,VALID,23.1874,VALID,47,VALID,0,
2014-12-01, 02:36:04,VALID,1007.75,VALID,0,INVALID,135.563,VALID,0,VALID,23.2069,VALID,47,VALID,0,
2014-12-01, 02:37:04,VALID,1007.77,VALID,0,INVALID,135.54,VALID,0,VALID,23.2069,VALID,47,VALID,0,
2014-12-01, 02:38:04,VALID,1007.77,VALID,0,INVALID,135.601,VALID,0,VALID,23.2087,VALID,47,VALID,0,
2014-12-01, 02:39:04,VALID,1007.78,VALID,0,INVALID,135.586,VALID,0,VALID,23.1892,VALID,47,VALID,0,
2014-12-01, 02:40:04,VALID,1007.77,VALID,0,INVALID,135.555,VALID,0,VALID,23.1892,VALID,47,VALID,0,
2014-12-01, 02:41:04,VALID,1007.79,VALID,0,INVALID,135.594,VALID,0,VALID,23.1679,VALID,47,VALID,0,
2014-12-01, 02:42:04,VALID,1007.83,VALID,0,INVALID,135.494,VALID,0,VALID,23.1892,VALID,47,VALID,0,
2014-12-01, 02:43:04,VALID,1007.82,VALID,0,INVALID,135.479,VALID,0,VALID,23.1874,VALID,47,VALID,0,
2014-12-01, 02:44:04,VALID,1007.78,VALID,0,INVALID,135.472,VALID,0,VALID,23.1679,VALID,47,VALID,0,
2014-12-01, 02:45:04,VALID,1007.76,VALID,0,INVALID,135.441,VALID,0,VALID,23.1892,VALID,47,VALID,0,
2014-12-01, 02:46:04,VALID,1007.72,VALID,0,INVALID,135.418,VALID,0,VALID,23.1679,VALID,47,VALID,0,
2014-12-01, 02:47:04,VALID,1007.76,VALID,0,INVALID,135.395,VALID,0,VALID,23.1679,VALID,47,VALID,0,
2014-12-01, 02:48:04,VALID,1007.74,VALID,0,INVALID,135.372,VALID,0,VALID,23.1892,VALID,47,VALID,0,
2014-12-01, 02:49:04,VALID,1007.75,VALID,0,INVALID,135.395,VALID,0,VALID,23.1892,VALID,47,VALID,0,
2014-12-01, 02:50:04,VALID,1007.73,VALID,0,INVALID,135.35,VALID,0,VALID,23.2087,VALID,47,VALID,0,
2014-12-01, 02:51:04,VALID,1007.71,VALID,0,INVALID,135.304,VALID,0,VALID,23.1697,VALID,47,VALID,0,
2014-12-01, 02:52:04,VALID,1007.71,VALID,0,INVALID,135.273,VALID,0,VALID,23.1892,VALID,47,VALID,0,
2014-12-01, 02:53:04,VALID,1007.72,VALID,0,INVALID,135.174,VALID,0,VALID,23.1874,VALID,48,VALID,0,
2014-12-01, 02:54:04,VALID,1007.7,VALID,0,INVALID,135.09,VALID,0,VALID,23.2087,VALID,47,VALID,0,
2014-12-01, 02:55:04,VALID,1007.67,VALID,0,INVALID,135.052,VALID,0,VALID,23.1874,VALID,47,VALID,0,
2014-12-01, 02:56:04,VALID,1007.67,VALID,0,INVALID,134.999,VALID,0,VALID,23.1874,VALID,47,VALID,0,
2014-12-01, 02:57:04,VALID,1007.66,VALID,0,INVALID,134.983,VALID,0,VALID,23.1874,VALID,47,VALID,0,
2014-12-01, 02:58:04,VALID,1007.64,VALID,0,INVALID,134.915,VALID,0,VALID,23.2087,VALID,47,VALID,0,
2014-12-01, 02:59:04,VALID,1007.67,VALID,0,INVALID,134.831,VALID,0,VALID,23.2087,VALID,47,VALID,0,
2014-12-01, 03:00:04,VALID,1007.67,VALID,0,INVALID,134.732,VALID,0,VALID,23.2069,VALID,47,VALID,0,
2014-12-01, 03:01:04,VALID,1007.67,VALID,0,INVALID,134.694,VALID,0,VALID,23.2282,VALID,47,VALID,0,
2014-12-01, 03:02:04,VALID,1007.64,VALID,0,INVALID,134.602,VALID,0,VALID,23.2476,VALID,48,VALID,0,
2014-12-01, 03:03:04,VALID,1007.65,VALID,0,INVALID,134.572,VALID,0,VALID,23.2264,VALID,48,VALID,0,
2014-12-01, 03:04:04,VALID,1007.65,VALID,0,INVALID,134.541,VALID,0,VALID,23.2264,VALID,48,VALID,0,
2014-12-01, 03:05:04,VALID,1007.67,VALID,0,INVALID,134.526,VALID,0,VALID,23.2264,VALID,48,VALID,0,
2014-12-01, 03:06:04,VALID,1007.67,VALID,0,INVALID,134.518,VALID,0,VALID,23.2264,VALID,48,VALID,0,
2014-12-01, 03:07:04,VALID,1007.66,VALID,0,INVALID,134.473,VALID,0,VALID,23.2264,VALID,48,VALID,0,
2014-12-01, 03:08:04,VALID,1007.66,VALID,0,INVALID,134.343,VALID,0,VALID,23.2282,VALID,48,VALID,0,
2014-12-01, 03:09:04,VALID,1007.67,VALID,0,INVALID,134.328,VALID,0,VALID,23.2264,VALID,48,VALID,0,
2014-12-01, 03:10:04,VALID,1007.64,VALID,0,INVALID,134.328,VALID,0,VALID,23.2264,VALID,48,VALID,0,
2014-12-01, 03:11:04,VALID,1007.62,VALID,0,INVALID,134.274,VALID,0,VALID,23.2069,VALID,48,VALID,0,
2014-12-01, 03:12:04,VALID,1007.62,VALID,0,INVALID,134.251,VALID,0,VALID,23.2264,VALID,48,VALID,0,
2014-12-01, 03:13:04,VALID,1007.6,VALID,0,INVALID,134.183,VALID,0,VALID,23.2264,VALID,47,VALID,0,
2014-12-01, 03:14:04,VALID,1007.57,VALID,0,INVALID,134.084,VALID,0,VALID,23.2459,VALID,47,VALID,0,
2014-12-01, 03:15:04,VALID,1007.56,VALID,0,INVALID,134.068,VALID,0,VALID,23.2459,VALID,47,VALID,0,
2014-12-01, 03:16:04,VALID,1007.55,VALID,0,INVALID,134.03,VALID,0,VALID,23.2459,VALID,47,VALID,0,
2014-12-01, 03:17:04,VALID,1007.54,VALID,0,INVALID,133.969,VALID,0,VALID,23.2671,VALID,47,VALID,0,
2014-12-01, 03:18:04,VALID,1007.5,VALID,0,INVALID,133.893,VALID,0,VALID,23.2654,VALID,47,VALID,0,
2014-12-01, 03:19:04,VALID,1007.49,VALID,0,INVALID,133.862,VALID,0,VALID,23.2654,VALID,47,VALID,0,
2014-12-01, 03:20:04,VALID,1007.51,VALID,0,INVALID,133.84,VALID,0,VALID,23.2654,VALID,47,VALID,0,
2014-12-01, 03:21:04,VALID,1007.51,VALID,0,INVALID,133.84,VALID,0,VALID,23.2654,VALID,47,VALID,0,
2014-12-01, 03:22:04,VALID,1007.52,VALID,0,INVALID,133.84,VALID,0,VALID,23.2459,VALID,47,VALID,0,
2014-12-01, 03:23:04,VALID,1007.51,VALID,0,INVALID,133.832,VALID,0,VALID,23.2654,VALID,47,VALID,0,
2014-12-01, 03:24:04,VALID,1007.54,VALID,0,INVALID,133.832,VALID,0,VALID,23.2654,VALID,47,VALID,0,
2014-12-01, 03:25:04,VALID,1007.55,VALID,0,INVALID,133.801,VALID,0,VALID,23.2848,VALID,47,VALID,0,
2014-12-01, 03:26:04,VALID,1007.52,VALID,0,INVALID,133.779,VALID,0,VALID,23.3061,VALID,47,VALID,0,
2014-12-01, 03:27:04,VALID,1007.52,VALID,0,INVALID,133.786,VALID,0,VALID,23.2866,VALID,47,VALID,0,
2014-12-01, 03:28:04,VALID,1007.54,VALID,0,INVALID,133.779,VALID,0,VALID,23.2848,VALID,47,VALID,0,
2014-12-01, 03:29:04,VALID,1007.53,VALID,0,INVALID,133.771,VALID,0,VALID,23.2654,VALID,47,VALID,0,
2014-12-01, 03:30:04,VALID,1007.55,VALID,0,INVALID,133.862,VALID,0,VALID,23.2654,VALID,47,VALID,0,
2014-12-01, 03:31:04,VALID,1007.54,VALID,0,INVALID,133.901,VALID,0,VALID,23.2654,VALID,47,VALID,0,
2014-12-01, 03:32:04,VALID,1007.59,VALID,0,INVALID,133.954,VALID,0,VALID,23.2459,VALID,47,VALID,0,
2014-12-01, 03:33:04,VALID,1007.62,VALID,0,INVALID,134.038,VALID,0,VALID,23.2264,VALID,47,VALID,0,
2014-12-01, 03:34:04,VALID,1007.63,VALID,0,INVALID,134.045,VALID,0,VALID,23.2459,VALID,47,VALID,0,
2014-12-01, 03:35:04,VALID,1007.67,VALID,0,INVALID,134.068,VALID,0,VALID,23.2459,VALID,47,VALID,0,
2014-12-01, 03:36:04,VALID,1007.71,VALID,0,INVALID,134.084,VALID,0,VALID,23.2459,VALID,47,VALID,0,
2014-12-01, 03:37:04,VALID,1007.75,VALID,0,INVALID,134.114,VALID,0,VALID,23.2476,VALID,47,VALID,0,
2014-12-01, 03:38:04,VALID,1007.78,VALID,0,INVALID,134.145,VALID,0,VALID,23.2671,VALID,47,VALID,0,
2014-12-01, 03:39:04,VALID,1007.78,VALID,0,INVALID,134.175,VALID,0,VALID,23.2264,VALID,47,VALID,0,
2014-12-01, 03:40:04,VALID,1007.77,VALID,0,INVALID,134.198,VALID,0,VALID,23.2264,VALID,47,VALID,0,
2014-12-01, 03:41:04,VALID,1007.77,VALID,0,INVALID,134.175,VALID,0,VALID,23.2264,VALID,47,VALID,0,
2014-12-01, 03:42:04,VALID,1007.77,VALID,0,INVALID,134.259,VALID,0,VALID,23.2264,VALID,47,VALID,0,
2014-12-01, 03:43:04,VALID,1007.82,VALID,0,INVALID,134.282,VALID,0,VALID,23.2264,VALID,47,VALID,0,
2014-12-01, 03:44:04,VALID,1007.84,VALID,0,INVALID,134.351,VALID,0.112112,VALID,23.2069,VALID,47,VALID,0,
2014-12-01, 03:45:04,VALID,1007.83,VALID,0,INVALID,134.404,VALID,0,VALID,23.2069,VALID,47,VALID,0,
2014-12-01, 03:46:04,VALID,1007.85,VALID,0,INVALID,134.434,VALID,0,VALID,23.1874,VALID,47,VALID,0,
2014-12-01, 03:47:04,VALID,1007.84,VALID,0,INVALID,134.465,VALID,0,VALID,23.1874,VALID,47,VALID,0,
2014-12-01, 03:48:04,VALID,1007.84,VALID,0,INVALID,134.503,VALID,0,VALID,23.1679,VALID,47,VALID,0,
2014-12-01, 03:49:04,VALID,1007.89,VALID,0,INVALID,134.572,VALID,0,VALID,23.1679,VALID,47,VALID,0,
2014-12-01, 03:50:04,VALID,1007.94,VALID,0,INVALID,134.602,VALID,0,VALID,23.1679,VALID,47,VALID,0,
2014-12-01, 03:51:04,VALID,1007.95,VALID,0,INVALID,134.587,VALID,0,VALID,23.1679,VALID,47,VALID,0,
2014-12-01, 03:52:04,VALID,1007.96,VALID,0,INVALID,134.648,VALID,0,VALID,23.1679,VALID,47,VALID,0,
2014-12-01, 03:53:04,VALID,1007.99,VALID,0,INVALID,134.671,VALID,0,VALID,23.1697,VALID,47,VALID,0,
2014-12-01, 03:54:04,VALID,1008.01,VALID,0,INVALID,134.709,VALID,0,VALID,23.1485,VALID,47,VALID,0,
2014-12-01, 03:55:04,VALID,1008.03,VALID,0,INVALID,134.717,VALID,0,VALID,23.1467,VALID,47,VALID,0,
2014-12-01, 03:56:04,VALID,1008.05,VALID,0,INVALID,134.701,VALID,0,VALID,23.129,VALID,47,VALID,0,